Content
SEND FEEDBACK

Thailand Flag

PHUKET, THAILAND


Home > Asia > Thailand
Elevation: 10 meters     Latitude: 08 07N     Longitude: 098 19E

WEATHER
 
SELECT A DAY
Number of Records: 260,269;   Date Range: 7/1/96 - 3/22/16
 
SHARE

PRINT THIS DATA

[ ← Previous Day ]
WEATHER ALMANAC - 1 APRIL, 2013
[ Next Day → ]
[ °F ]   °C
Weather ElementAverageHighLow
Temperature29.7 °C36 °C (11:30 am)26 °C (3:30 am)
Dewpoint24.6 °C26.1 °C (1:00 am)23 °C (10:30 am)
Humidity75.3 %94 % (3:30 am)50 % (11:30 am)
Barometer1009.5 hPa1011.2 hPa (8:30 am)1007.1 hPa (6:00 pm)
Wind Speed7.2 km/h22.2 km/h (6:00 pm)
Weather ElementAverage
Visibility8.4 km
Wind DirectionESE (114.4 °)

Weather ElementTotal
Precipitation---
Cooling Degree Days12.7 (Base 18.3)
Growing Degree Days21 (Base 10)
Averaged from 50 records on 1 April, 2013
WEATHER CONDITIONS BREAKOUT
WIND DIRECTION BREAKOUT
WEATHER BY HOUR - 1 APRIL, 2013
[ °F ]   °C
Local TimeTemperatureDewpointHumidityBarometerVisibilityWind DirectionWind SpeedGust SpeedPrecipitationEventsConditions
12:30 AM28 °C25 °C84 %1010.2 hPa6.9 kmCalmMostly Cloudy
1:00 AM27.8 °C26.1 °C88 %1008.5 hPa8 kmCalmMist
1:00 AM27 °C25 °C89 %1009.1 hPa6.9 kmCalmMostly Cloudy
1:30 AM27 °C25 °C89 %1009.1 hPa6.9 kmCalmMostly Cloudy
2:00 AM27 °C25 °C89 %1009.1 hPa6.9 kmCalmMostly Cloudy
2:30 AM27 °C25 °C89 %1008.1 hPa6.9 kmCalmMostly Cloudy
3:30 AM26 °C25 °C94 %1008.1 hPa6.9 kmCalmMostly Cloudy
4:00 AM26 °C25 °C94 %1008.1 hPa6.9 kmCalmMostly Cloudy
4:30 AM26 °C25 °C94 %1008.1 hPa6.9 kmCalmMostly Cloudy
5:00 AM26 °C24 °C89 %1008.1 hPa6.9 kmCalmMostly Cloudy
5:30 AM26 °C25 °C94 %1008.1 hPa6.9 kmCalmMostly Cloudy
6:00 AM26 °C25 °C94 %1009.1 hPa6.9 kmCalmMostly Cloudy
6:30 AM26 °C25 °C94 %1009.1 hPa8 kmCalmMostly Cloudy
7:00 AM26.7 °C25.6 °C93 %1008.5 hPa8 kmCalmMist
7:00 AM26 °C25 °C94 %1010.2 hPa6.9 kmCalmMostly Cloudy
7:30 AM27 °C25 °C89 %1010.2 hPa8 kmCalmMostly Cloudy
8:00 AM29 °C25 °C79 %1010.2 hPa8 kmENE (60°)7.4 km/hMostly Cloudy
8:30 AM30 °C24 °C70 %1011.2 hPa9 kmEast (80°)11.1 km/hMostly Cloudy
9:00 AM31 °C25 °C70 %1011.2 hPa9 kmEast (90°)5.6 km/hMostly Cloudy
9:30 AM32 °C24 °C62 %1010.2 hPa9 kmEast (90°)11.1 km/hMostly Cloudy
10:00 AM33 °C24 °C59 %1011.2 hPa9 kmEast (100°)9.3 km/hMostly Cloudy
10:30 AM33 °C23 °C55 %1011.2 hPa9 kmEast (90°)13 km/hMostly Cloudy
11:00 AM33 °C23 °C55 %1011.2 hPa9 kmEast (90°)13 km/hMostly Cloudy
11:30 AM36 °C24 °C50 %1010.2 hPa9 kmEast (90°)11.1 km/hMostly Cloudy
12:00 PM34 °C23 °C52 %1010.2 hPa9 kmEast (90°)11.1 km/hMostly Cloudy
12:30 PM34 °C24 °C56 %1010.2 hPa9 kmVariable13 km/hMostly Cloudy
1:00 PM33.3 °C25 °C53 %1009.1 hPa8 kmNW (320°)5.6 km/hHaze
1:00 PM34 °C24 °C56 %1009.1 hPa9 kmEast (80°)13 km/hMostly Cloudy
1:30 PM35 °C24 °C53 %1009.1 hPa9 kmVariable9.3 km/hMostly Cloudy
2:00 PM34 °C23 °C52 %1009.1 hPa9 kmWest (280°)11.1 km/hMostly Cloudy
2:30 PM34 °C24 °C56 %1009.1 hPa9 kmWest (270°)16.7 km/hMostly Cloudy
3:00 PM33 °C23 °C55 %1009.1 hPa9 kmWest (280°)16.7 km/hMostly Cloudy
3:30 PM33 °C24 °C59 %1008.1 hPa9 kmWest (280°)18.5 km/hMostly Cloudy
4:00 PM32 °C24 °C62 %1008.1 hPa9 kmWest (270°)16.7 km/hMostly Cloudy
4:30 PM32 °C24 °C62 %1008.1 hPa9 kmWest (260°)16.7 km/hMostly Cloudy
5:00 PM32 °C25 °C66 %1008.1 hPa9 kmWNW (290°)20.4 km/hMostly Cloudy
5:30 PM31 °C25 °C70 %1008.1 hPa10 kmWest (280°)16.7 km/hMostly Cloudy
6:00 PM31 °C25 °C70 %1007.1 hPa10 kmWest (280°)22.2 km/hMostly Cloudy
6:30 PM30 °C25 °C74 %1008.1 hPa10 kmWNW (300°)13 km/hMostly Cloudy
7:00 PM30.6 °C26.1 °C71 %1007.8 hPa9.7 kmWNW (300°)5.6 km/hPartly Cloudy
7:00 PM30 °C25 °C74 %1008.1 hPa10 kmWest (280°)14.8 km/hMostly Cloudy
7:30 PM29 °C25 °C79 %1008.1 hPa8 kmWNW (290°)11.1 km/hMostly Cloudy
8:00 PM29 °C25 °C79 %1009.1 hPa8 kmWNW (300°)5.6 km/hMostly Cloudy
8:30 PM30 °C25 °C74 %1010.2 hPa8 kmNNW (330°)7.4 km/hMostly Cloudy
9:00 PM28 °C25 °C84 %1010.2 hPa8 kmNNE (20°)5.6 km/hMostly Cloudy
9:30 PM27 °C25 °C89 %1010.2 hPa8 kmCalmMostly Cloudy
10:00 PM27 °C26 °C94 %1010.2 hPa8 kmCalmMostly Cloudy
10:30 PM27 °C25 °C89 %1011.2 hPa8 kmVariable3.7 km/hMostly Cloudy
11:00 PM27 °C25 °C89 %1011.2 hPa8 kmVariable1.9 km/hMostly Cloudy
11:30 PM27 °C25 °C89 %1011.2 hPa8 kmVariable1.9 km/hMostly Cloudy
Hourly data recorded from VTSP, located 0 kilometers away from Phuket, Thailand




STORIES FROM OUR PARTNERS